Location: Berg
(47.2344°N, 9.5296°E)
Time: 11:51:18
(UTC+00:00)

Cosmos 1340 - Pass Details

Date: 24 January 2021
Orbit: 501 x 503 km, 81.2° (Epoch: 06 March)

Event Time Altitude Azimuth Distance (km) Brightness Sun altitude
Rises 17:46:37 0° 181° (S) 2,583 6.4 -15.9°
Reaches altitude 10° 17:48:45 10° 177° (S) 1,704 5.4 -16.3°
Maximum altitude 17:52:26 59° 98° (E) 584 2.6 -16.9°
Enters shadow 17:54:33 23° 25° (NNE) 1,099 4.0 -17.2°
